This demonstration page uses our WeatherBlox Daily Observations layout. Learn more.

38.89511, -77.03637

Hourly Observations for November 14, 2019

Temp ( °F °C ) Dew Point ( °F °C ) Humidity (%) Winds ( mph kmh ) Pressure ( in mb ) Visibility ( mi km ) Precip ( " mm )
12:52 am 00:52 Mostly Cloudy 30 -1.1 20 -6.7 66 66 SSW 7 11 30.42 1030 10 16.09344 0 0
1:52 am 01:52 Mostly Cloudy 31 -0.6 18 -7.8 59 59 SSW 9 15 30.42 1030 10 16.09344 0 0
2:52 am 02:52 Mostly Cloudy 30 -1.1 18 -7.8 61 61 SSW 7 11 30.42 1030 10 16.09344 0 0
3:52 am 03:52 Partly Cloudy 29 -1.7 19 -7.2 66 66 SSW 8 13 30.39 1029 10 16.09344 0 0
4:52 am 04:52 Partly Cloudy 29 -1.7 20 -6.7 69 69 SSW 8 13 30.39 1029 10 16.09344 0 0
5:52 am 05:52 Partly Cloudy 29 -1.7 21 -6.1 72 72 S 3 6 30.42 1030 10 16.09344 0 0
6:52 am 06:52 Mostly Cloudy 28 -2.2 20 -6.7 72 72 SSW 8 13 30.42 1030 10 16.09344 0 0
7:52 am 07:52 Mostly Cloudy 31 -0.6 22 -5.6 69 69 SW 8 13 30.42 1030 10 16.09344 0 0
8:52 am 08:52 Mostly Cloudy 33 0.6 23 -5 66 66 S 8 13 30.42 1030 10 16.09344 0 0
9:52 am 09:52 Sunny 35 1.7 23 -5 61 61 S 10 17 30.42 1030 10 16.09344 0 0
9:56 am 09:56 Mostly Cloudy 35 1.7 23 -5 61 61 S 12 19 30.45 1031 10 16.09344 0 0
12:52 pm 12:52 Mostly Cloudy 40 4.4 21 -6.1 47 47 S 7 11 30.36 1028 10 16.09344 0 0
1:52 pm 13:52 Mostly Cloudy 40 4.4 19 -7.2 43 43 S 7 11 30.33 1027 10 16.09344 0 0
2:52 pm 14:52 Mostly Cloudy 41 5 20 -6.7 43 43 S 6 9 30.33 1027 10 16.09344 0 0
3:52 pm 15:52 Mostly Cloudy 42 5.6 21 -6.1 43 43 SE 3 6 30.33 1027 10 16.09344 0 0
4:52 pm 16:52 Mostly Cloudy 41 5 20 -6.7 43 43 Calm 30.33 1027 10 16.09344 0 0
5:52 pm 17:52 Mostly Cloudy 40 4.4 21 -6.1 47 47 Calm 30.33 1027 10 16.09344 0 0
6:52 pm 18:52 Partly Cloudy 40 4.4 20 -6.7 45 45 Calm 30.33 1027 10 16.09344 0 0
7:52 pm 19:52 Mostly Cloudy 39 3.9 25 -3.9 57 57 Calm 30.33 1027 10 16.09344 0 0
8:52 pm 20:52 Partly Cloudy 37 2.8 29 -1.7 73 73 Calm 30.33 1027 10 16.09344 0 0
9:52 pm 21:52 Mostly Cloudy 37 2.8 27 -2.8 67 67 E 3 6 30.33 1027 10 16.09344 0 0
10:52 pm 22:52 Mostly Cloudy 39 3.9 28 -2.2 65 65 Calm 30.33 1027 10 16.09344 0 0
11:52 pm 23:52 Partly Cloudy 39 3.9 28 -2.2 65 65 Calm 30.3 1026 10 16.09344 0 0

Powered by AerisWeather